Location: Bednik
(45.3500°N, 16.3833°E)
Time: 04:52:50
(UTC+00:00)

IGS 5A - Pass Details

Date: 08 August 2020
Orbit: 583 x 588 km, 97.6° (Epoch: 17 September)

Event Time Altitude Azimuth Distance (km) Brightness Sun altitude
Exits shadow 19:41:17 22° 146° (SE) 1,286 4.6 -14.1°
Maximum altitude 19:43:46 59° 74° (ENE) 685 3.6 -14.4°
Drops below altitude 10° 19:47:53 10° 355° (N) 1,926 6.8 -15.0°
Sets 19:50:04 0° 351° (N) 2,831 7.8 -15.2°
